Cloud_Cover
100 100 100 100 100 100 100 100 100 100 100 100 100 100 98 55 16 5 3 0 0 0 0 0 0 0 0 0 0 0 0 0 0 0 0 0 0 5 2 0 0 2 3
100 100 100 100 100 100 97 75 100 90 51 100 85 56 84 83 11 5 0 5 5 5 0 0 0 0 0 0 0 0 0 0 0 4 0 0 5 5 5 2 0 0 2
100 100 100 100 99 100 97 77 29 17 5 44 67 47 22 6 5 5 3 74 69 2 0 0 0 0 0 0 0 0 0 3 5 5 5 5 5 5 5 2 1 1 5
47 43 56 35 22 22 59 60 6 10 17 10 5 5 5 16 2 5 68 4 0 0 0 0 0 0 0 0 0 0 4 5 5 5 48 86 46 6 5 5 5 5 2
6 5 5 11 5 5 5 10 92 8 6 27 4 5 5 5 6 14 0 0 0 0 0 0 0 0 0 0 2 3 5 5 5 62 100 93 90 89 100 62 72 5 5
57 78 5 5 35 58 67 70 74 5 5 5 9 20 41 36 17 5 0 0 0 0 0 0 0 0 0 0 2 5 42 88 100 96 95 100 85 58 66 100 79 85 83
84 96 92 95 87 89 77 99 5 12 24 39 82 89 20 5 4 0 0 2 3 0 0 0 0 0 0 0 0 5 43 50 100 100 100 98 100 100 100 99 99 100 98
100 100 100 93 100 84 98 58 94 85 100 35 20 45 7 5 3 0 0 0 5 1 0 0 0 0 0 4 9 40 99 93 90 89 99 93 94 100 100 100 100 96 91
100 100 100 100 76 90 100 100 100 100 38 82 19 5 5 5 0 0 0 4 5 5 5 3 3 1 2 99 99 89 45 5 5 5 98 100 100 96 100 100 73 100 100
100 100 92 100 100 100 100 100 95 77 98 96 5 21 21 5 0 0 5 5 5 5 5 5 5 38 99 100 100 99 6 5 18 89 5 3 5 5 81 100 100 100 100
100 100 100 100 100 100 100 83 100 98 82 79 28 45 6 5 4 0 5 5 5 5 5 5 5 50 98 100 100 97 11 92 71 6 5 5 5 5 5 20 80 81 100
100 100 100 100 85 100 100 100 100 96 100 90 6 5 5 5 3 1 4 5 22 72 7 24 16 76 100 100 100 56 94 99 20 5 5 5 67 74 8 5 48 70 98
99 67 100 100 100 100 100 100 100 96 98 7 5 5 5 5 5 4 5 33 91 100 83 28 98 100 100 72 6 5 82 5 5 26 5 66 36 5 11 91 81 100 89
100 100 100 100 100 100 100 100 77 42 26 12 5 5 5 5 5 10 8 5 12 38 44 19 24 50 97 16 5 5 32 20 5 5 70 82 6 27 100 100 100 100 100
96 86 100 100 100 100 100 83 32 52 84 22 30 7 5 5 46 74 15 12 64 81 83 90 100 98 23 51 25 51 91 89 5 5 70 48 94 100 100 100 100 100 100
100 100 91 98 100 100 59 9 39 82 88 91 64 63 91 94 100 100 100 100 100 100 100 96 100 83 84 86 63 99 96 90 5 28 98 100 100 100 100 100 100 100 100
100 95 100 100 82 6 14 5 6 94 96 100 100 100 100 100 100 100 100 100 100 100 100 100 100 78 89 100 98 99 97 38 5 87 99 100 100 100 100 100 100 100 100
100 100 85 6 5 5 5 8 93 100 100 100 100 99 83 100 100 100 100 100 100 100 85 99 98 97 80 99 100 90 66 70 35 100 100 97 100 100 100 100 100 100 100
87 5 5 5 5 5 19 99 100 100 100 61 90 94 78 96 100 100 100 100 100 100 100 100 100 100 100 97 100 100 57 9 100 100 94 100 100 100 100 100 100 100 100
5 5 5 5 5 14 88 96 78 82 31 15 86 100 99 100 100 100 100 100 100 83 100 100 100 100 100 100 100 100 70 86 100 100 47 66 100 100 100 100 100 100 100
6 6 28 83 85 56 55 100 80 8 73 100 92 88 98 100 100 100 93 14 10 54 5 100 100 100 100 100 100 100 35 100 100 53 47 76 100 100 100 100 100 100 100
82 92 100 100 13 13 99 100 100 100 95 31 8 22 84 60 5 5 47 91 100 83 94 100 100 100 100 100 100 100 69 71 63 42 55 81 98 100 100 100 100 100 100
100 100 100 36 87 100 100 100 100 57 35 89 91 11 5 5 5 5 5 62 98 100 100 100 100 100 100 100 100 97 99 64 29 55 96 100 97 100 100 100 100 100 100
100 100 96 100 100 100 96 96 34 5 5 50 34 5 5 5 5 5 5 75 65 99 100 100 100 100 100 100 100 100 92 78 58 63 93 100 100 92 100 100 100 99 96
100 100 100 100 100 100 100 79 41 22 5 5 5 8 6 10 8 5 6 5 70 78 100 100 100 100 100 100 100 100 100 100 82 56 11 64 97 86 100 100 100 68 41
100 100 100 100 100 100 100 84 47 17 18 5 7 40 91 99 93 89 77 74 77 69 92 100 100 100 100 100 100 100 100 99 74 59 48 100 100 100 100 100 93 81 64